Weather History for North Island, CA

Change the Weather History Date:

Sunday, December 9, 2012

  Actual Average Record
Temperature  
Mean Temperature 59 °F -  
Max Temperature 64 °F 62 °F 79 °F (2008)
Min Temperature 54 °F 47 °F 32 °F (2011)
Degree Days  
Heating Degree Days 6    
Growing Degree Days 9 (Base 50)    
Moisture  
Dew Point 51 °F    
Average Humidity 74    
Maximum Humidity 84    
Minimum Humidity 63    
Precipitation  
Precipitation 0.00 in - - ()
Sea Level Pressure  
Sea Level Pressure 30.04 in    
Wind  
Wind Speed 3 mph (NW)    
Max Wind Speed 7 mph    
Max Gust Speed -    
Visibility 4 miles    
Events      
Averages and records for this station are not official NWS values.
T = Trace of Precipitation, MM = Missing Value Source: NWS Daily Summary

Daily Weather History Graph

Daily Weather History Graph

Search for Another Location

Airport:

Trip Planner

Search our weather history database for the weather conditions in past years. The results will help you decide how hot, cold, wet, or windy it might be!

Date:

Astronomy

Dec. 09, 2012 Rise Set
Actual Time 6:39 AM PST 4:43 PM PST
Civil Twilight 6:12 AM PST 5:10 PM PST
Nautical Twilight 5:42 AM PST 5:40 PM PST
Astronomical Twilight 5:12 AM PST 6:10 PM PST
Moon 2:27 AM PST (12/9) 1:44 PM PST (12/9)
Length of Visible Light 10h 57m
Length of Day
10h 03m
Waning Crescent, 17% of the Moon is Illuminated
Dec 9
Waning Crescent
Dec 13
New
Dec 19
First Quarter
Dec 28
Full
Jan 4
Last Quarter

Hourly Weather History & Observations

Time (PST) Temp. Dew Point Humidity Pressure Visibility Wind Dir Wind Speed Gust Speed Precip Events Conditions
12:52 AM 59.0 °F 53.1 °F 81% 29.98 in 3.0 mi SE 4.6 mph - N/A   Overcast
1:52 AM 59.0 °F 53.1 °F 81% 29.99 in 3.0 mi Calm Calm - N/A   Overcast
2:52 AM 60.1 °F 53.1 °F 78% 29.99 in 3.0 mi Calm Calm - N/A   Overcast
3:52 AM 59.0 °F 52.0 °F 78% 29.98 in 3.0 mi ESE 5.8 mph - N/A   Overcast
4:52 AM 59.0 °F 51.1 °F 75% 29.98 in 3.0 mi East 4.6 mph - N/A   Overcast
5:52 AM 57.9 °F 50.0 °F 75% 29.99 in 3.0 mi ESE 3.5 mph - N/A   Overcast
6:52 AM 57.9 °F 50.0 °F 75% 30.02 in 3.0 mi North 4.6 mph - N/A   Overcast
7:52 AM 59.0 °F 50.0 °F 72% 30.03 in 2.0 mi NNE 4.6 mph - N/A   Haze
8:52 AM 61.0 °F 51.1 °F 70% 30.04 in 2.0 mi Calm Calm - N/A   Haze
9:52 AM 61.0 °F 51.1 °F 70% 30.05 in 2.0 mi South 4.6 mph - N/A   Haze
10:21 AM 60.8 °F 51.8 °F 72% 30.04 in 2.5 mi South 4.6 mph - N/A   Haze
10:52 AM 62.1 °F 51.1 °F 67% 30.04 in 3.0 mi South 4.6 mph - N/A   Haze
11:52 AM 63.0 °F 52.0 °F 67% 30.03 in 3.0 mi WNW 5.8 mph - N/A   Haze
12:52 PM 64.0 °F 51.1 °F 63% 30.00 in 4.0 mi West 5.8 mph - N/A   Haze
1:52 PM 64.0 °F 51.1 °F 63% 30.00 in 5.0 mi WNW 6.9 mph - N/A   Haze
2:52 PM 64.0 °F 51.1 °F 63% 30.00 in 5.0 mi NW 6.9 mph - N/A   Haze
3:52 PM 63.0 °F 51.1 °F 65% 30.02 in 5.0 mi NW 5.8 mph - N/A   Haze
4:52 PM 60.1 °F 51.1 °F 72% 30.04 in 5.0 mi NW 4.6 mph - N/A   Haze
5:52 PM 60.1 °F 52.0 °F 75% 30.06 in 5.0 mi NW 5.8 mph - N/A   Haze
6:52 PM 60.1 °F 52.0 °F 75% 30.08 in 5.0 mi NNW 3.5 mph - N/A   Haze
7:52 PM 57.0 °F 50.0 °F 77% 30.08 in 5.0 mi Calm Calm - N/A   Haze
8:52 PM 55.9 °F 51.1 °F 84% 30.10 in 5.0 mi Calm Calm - N/A   Scattered Clouds
9:52 PM 55.9 °F 51.1 °F 84% 30.11 in 5.0 mi Calm Calm - N/A   Partly Cloudy
10:52 PM 54.0 °F 48.9 °F 83% 30.12 in 4.0 mi Calm Calm - N/A   Scattered Clouds
11:52 PM 55.0 °F 50.0 °F 83% 30.12 in 4.0 mi Calm Calm - N/A   Scattered Clouds